Weather Roundup
Issued by NWS Corpus Christi, TX

Home | Current Version | Previous Version | Text Only | Print | Product List | Glossary On
Versions: 1 2 3 4 5 6 7 8 9 10 11 12 13 14 15 16 17 18 19 20 21 22 23 24 25 26 27 28 29 30 31 32 33 34 35 36 37 38 39 40 41 42 43 44 45 46 47 48 49 50
000
ASUS44 KCRP 271410
HRRCRP

SOUTH TEXAS REGIONAL WEATHER ROUNDUP
NATIONAL WEATHER SERVICE CORPUS CHRISTI TX
900 AM CDT SAT AUG 27 2016


TXZ229>244-271500-
...CORPUS CHRISTI AREA OBSERVATIONS...

CITY           SKY/WX    TMP DP  RH WIND       PRES   REMARKS
CORPUS CHRISTI MOSUNNY   82  77  84 N9        29.97R HX  90
NAS CORPUS CHR NOT AVBL
ROCKPORT       MOSUNNY   83  75  77 N9        29.96S HX  90
ALICE          SUNNY     81  76  84 N5        29.97S
FALFURRIAS     SUNNY     80  75  86 N3        29.97S
$$

...VICTORIA AREA OBSERVATIONS...

CITY           SKY/WX    TMP DP  RH WIND       PRES   REMARKS
VICTORIA       SUNNY     77  74  90 N7        30.00R
BEEVILLE       FAIR      68  68 100 NE3       29.98F
PLEASANTON     SUNNY     77  74  91 NE3       30.01S
SAN ANTONIO    MOSUNNY   79  73  82 CALM      30.03R
$$

...LAREDO AREA OBSERVATIONS...

CITY           SKY/WX    TMP DP  RH WIND       PRES   REMARKS
LAREDO         SUNNY     80  75  84 NE7       29.99R
COTULLA        SUNNY     81  74  79 E6        30.00R
DEL RIO        MOSUNNY   78  72  81 E12       30.00R
MCALLEN        SUNNY     84  76  76 CALM      29.96R HX  93
HEBBRONVILLE   SUNNY     76  75  95 E5        30.00S
$$

...OTHER TEXAS OBSERVATIONS...

CITY           SKY/WX    TMP DP  RH WIND       PRES   REMARKS
BROWNSVILLE    SUNNY     84  76  76 CALM      29.95R HX  93
HOUSTON        PTSUNNY   77  74  90 NW6       30.00R
COL. STATION   CLOUDY    77  75  93 CALM      30.03R
AUSTIN         MOSUNNY   79  73  82 CALM      30.02R
WACO           SUNNY     74  74 100 E5        30.04R FOG
FORT WORTH     MOSUNNY   79  72  79 SE8       30.04R
WICHITA FALLS  SUNNY     76  70  82 E9        30.03R
LUBBOCK        MOSUNNY   70  64  81 W5        30.11R
EL PASO        PTSUNNY   73  61  65 CALM      30.11R
$$

...MARINE OBSERVATIONS...

STATION/POSITION TIME  SKY/WX   TEMP    WIND        PRES    VSBY  WAVE   SWELL
                                AIR SEA DIR/SP/G                  HT/PER HT/PER
                 (UTC)          (F)     (DEG/KT/KT) (MB)    (MI)  (FT/S) (FT/S)
PORT ARANSAS     1400            80 85  330/ 10/ 11 1014.6R
BUOY 90 E PORT A 1350            84 86   10/  6/  8 1014.2R         3/ 7   3/ 7
BUOY 45 SE BAFFI 1350            84 86  300/  6/  8 1013.8R         2/ 6   2/ 6
BUOY 200 E PT IS 1350            86 86  290/  2/  2 1012.7R         3/ 7   3/ 7
BUOY 15 E GALVES 1350            80 85   30/ 12/ 14 1014.2F         2/ 5   2/ 6
$$




USA.gov is the U.S. government's official web portal to all federal, state and local government web resources and services.